Location: Little Arabia
(41.4620°N, 81.7687°W)
Time: 20:31:58
(UTC+00:00)

Cosmos 2058 Rocket - Pass Details

Date: 29 October 2020
Orbit: 610 x 640 km, 82.5° (Epoch: 03 December)

Event Time Altitude Azimuth Distance (km) Brightness Sun altitude
Rises 23:07:19 0° 182° (S) 2,913 6.7 -8.5°
Reaches altitude 10° 23:09:33 10° 180° (S) 2,014 5.8 -8.9°
Maximum altitude 23:14:00 74° 95° (E) 668 3.1 -9.7°
Drops below altitude 10° 23:18:31 10° 12° (NNE) 2,039 5.5 -10.6°
Sets 23:20:47 0° 10° (N) 2,954 6.3 -11.0°
